Location: Boca de Tacagua
(10.5333°N, 66.9833°W)
Time: 18:29:16
(UTC+00:00)

Cosmos 1666 Rocket - Pass Details

Date: 08 December 2021
Orbit: 602 x 634 km, 82.5° (Epoch: 16 January)

Event Time Altitude Azimuth Distance (km) Brightness Sun altitude
Rises 22:26:03 0° 354° (N) 2,874 6.8 -5.4°
Reaches altitude 10° 22:28:16 10° 354° (N) 1,964 6.0 -5.9°
Maximum altitude 22:32:37 82° 267° (W) 617 3.7 -6.9°
Drops below altitude 10° 22:36:55 10° 179° (S) 1,949 6.4 -7.9°
Sets 22:39:08 0° 178° (S) 2,849 7.2 -8.4°
